Time,TemperatureF,DewpointF,PressureIn,WindDirection,WindDirectionDegrees,WindSpeedMPH,WindSpeedGustMPH,Humidity,HourlyPrecipIn,Conditions,Clouds,dailyrainin,SolarRadiationWatts/m^2,SoftwareType,DateUTC
2013-02-02 00:03:00,24.0,17.0,30.41,SW,228,1.0,-999.0,72,-99.99,,,0.00,0.000000,,2013-02-02 05:03:00,
2013-02-02 00:12:00,24.0,15.0,30.42,SW,219,2.0,-999.0,68,-99.99,,,0.00,0.000000,,2013-02-02 05:12:00,
2013-02-02 00:22:00,24.0,16.0,30.41,SW,220,2.0,-999.0,72,-99.99,,,0.00,0.000000,,2013-02-02 05:22:00,
2013-02-02 00:33:00,24.0,16.0,30.41,SW,220,2.0,-999.0,72,-99.99,,,0.00,0.000000,,2013-02-02 05:33:00,
2013-02-02 00:42:00,24.0,17.0,30.40,SW,231,1.0,-999.0,74,-99.99,,,0.00,0.000000,,2013-02-02 05:42:00,
2013-02-02 00:52:00,23.0,17.0,30.40,SW,215,2.0,-999.0,74,-99.99,,,0.00,0.000000,,2013-02-02 05:52:00,
2013-02-02 01:02:00,23.0,17.0,30.40,SW,215,2.0,-999.0,74,-99.99,,,0.00,0.000000,,2013-02-02 06:02:00,
2013-02-02 01:12:00,23.0,18.0,30.39,WSW,245,3.0,-999.0,78,-99.99,,,0.00,0.000000,,2013-02-02 06:12:00,
2013-02-02 01:22:00,23.0,18.0,30.38,SW,214,1.0,-999.0,78,-99.99,,,0.00,0.000000,,2013-02-02 06:22:00,
2013-02-02 01:32:00,23.0,18.0,30.38,SW,214,1.0,-999.0,78,-99.99,,,0.00,0.000000,,2013-02-02 06:32:00,
2013-02-02 01:42:00,23.0,18.0,30.38,SW,217,1.0,-999.0,78,-99.99,,,0.00,0.000000,,2013-02-02 06:42:00,
2013-02-02 01:52:00,24.0,17.0,30.38,SSW,205,1.0,-999.0,75,-99.99,,,0.00,0.000000,,2013-02-02 06:52:00,
2013-02-02 02:02:00,24.0,17.0,30.38,SSW,205,1.0,-999.0,75,-99.99,,,0.00,0.000000,,2013-02-02 07:02:00,
2013-02-02 02:12:00,23.0,18.0,30.38,SSW,201,2.0,-999.0,78,-99.99,,,0.00,0.000000,,2013-02-02 07:12:00,
2013-02-02 02:21:00,23.0,19.0,30.38,SW,228,2.0,-999.0,82,-99.99,,,0.00,0.000000,,2013-02-02 07:21:00,
2013-02-02 02:32:00,23.0,19.0,30.38,SW,228,2.0,-999.0,82,-99.99,,,0.00,0.000000,,2013-02-02 07:32:00,
2013-02-02 02:42:00,23.0,19.0,30.37,SW,223,2.0,-999.0,83,-99.99,,,0.00,0.000000,,2013-02-02 07:42:00,
2013-02-02 02:52:00,24.0,18.0,30.35,SSW,205,1.0,-999.0,80,-99.99,,,0.00,0.000000,,2013-02-02 07:52:00,
2013-02-02 03:01:00,24.0,18.0,30.35,SSW,205,1.0,-999.0,80,-99.99,,,0.00,0.000000,,2013-02-02 08:01:00,
2013-02-02 03:11:00,23.0,20.0,30.35,SSW,199,1.0,-999.0,85,-99.99,,,-99.99,0.000000,,2013-02-02 08:11:00,
2013-02-02 03:21:00,24.0,19.0,30.34,South,170,1.0,-999.0,82,-99.99,,,-99.99,0.000000,,2013-02-02 08:21:00,
2013-02-02 03:32:00,24.0,19.0,30.34,South,170,1.0,-999.0,82,-99.99,,,-99.99,0.000000,,2013-02-02 08:32:00,
2013-02-02 03:42:00,24.0,19.0,30.34,South,170,1.0,-999.0,82,-99.99,,,-99.99,0.000000,,2013-02-02 08:42:00,
2013-02-02 03:53:00,24.0,20.0,30.34,WSW,258,3.0,-999.0,84,-99.99,,,0.00,0.000000,,2013-02-02 08:53:00,
2013-02-02 04:02:00,24.0,20.0,30.34,WSW,258,3.0,-999.0,84,-99.99,,,0.00,0.000000,,2013-02-02 09:02:00,
2013-02-02 04:11:00,23.0,19.0,30.33,SW,215,1.0,-999.0,81,-99.99,,,0.00,0.000000,,2013-02-02 09:11:00,
2013-02-02 04:22:00,23.0,20.0,30.33,WNW,300,2.0,-999.0,85,-99.99,,,0.00,0.000000,,2013-02-02 09:22:00,
2013-02-02 04:32:00,23.0,20.0,30.33,WNW,300,2.0,-999.0,85,-99.99,,,0.00,0.000000,,2013-02-02 09:32:00,
2013-02-02 04:42:00,23.0,21.0,30.33,West,275,2.0,-999.0,90,-99.99,,,0.00,0.000000,,2013-02-02 09:42:00,
2013-02-02 04:52:00,23.0,20.0,30.32,West,262,2.0,-999.0,88,-99.99,,,0.00,0.000000,,2013-02-02 09:52:00,
2013-02-02 05:02:00,23.0,20.0,30.32,West,262,2.0,-999.0,88,-99.99,,,0.00,0.000000,,2013-02-02 10:02:00,
2013-02-02 05:11:00,23.0,21.0,30.33,SW,232,2.0,-999.0,89,-99.99,,,0.00,0.000000,,2013-02-02 10:11:00,
2013-02-02 05:21:00,23.0,22.0,30.33,WSW,251,3.0,-999.0,98,-99.99,,,0.00,0.000000,,2013-02-02 10:21:00,
2013-02-02 05:32:00,23.0,22.0,30.33,WSW,251,3.0,-999.0,98,-99.99,,,0.00,0.000000,,2013-02-02 10:32:00,
2013-02-02 05:42:00,23.0,23.0,30.33,West,259,3.0,-999.0,98,-99.99,,,0.00,0.000000,,2013-02-02 10:42:00,
2013-02-02 05:52:00,23.0,22.0,30.33,WSW,248,3.0,-999.0,97,-99.99,,,0.00,0.000000,,2013-02-02 10:52:00,
2013-02-02 06:02:00,23.0,22.0,30.33,WSW,248,3.0,-999.0,97,-99.99,,,0.00,0.000000,,2013-02-02 11:02:00,
2013-02-02 06:11:00,22.0,22.0,30.33,SW,224,2.0,-999.0,99,-99.99,,,0.00,0.000000,,2013-02-02 11:11:00,
2013-02-02 06:22:00,22.0,22.0,30.33,SW,229,2.0,-999.0,99,-99.99,,,0.00,0.000000,,2013-02-02 11:22:00,
2013-02-02 06:32:00,22.0,22.0,30.33,SW,229,2.0,-999.0,99,-99.99,,,0.00,0.000000,,2013-02-02 11:32:00,
2013-02-02 06:42:00,22.0,22.0,30.33,SW,216,2.0,-999.0,99,-99.99,,,0.00,0.000000,,2013-02-02 11:42:00,
2013-02-02 06:52:00,22.0,22.0,30.33,SW,235,2.0,-999.0,98,-99.99,,,0.00,0.000000,,2013-02-02 11:52:00,
2013-02-02 07:02:00,22.0,22.0,30.33,SW,235,2.0,-999.0,98,-99.99,,,0.00,0.000000,,2013-02-02 12:02:00,
2013-02-02 07:11:00,22.0,22.0,30.33,SW,231,2.0,-999.0,98,-99.99,,,0.00,0.000000,,2013-02-02 12:11:00,
2013-02-02 07:22:00,22.0,22.0,30.33,WSW,239,3.0,-999.0,98,-99.99,,,0.00,0.000000,,2013-02-02 12:22:00,
2013-02-02 07:32:00,22.0,22.0,30.33,WSW,239,3.0,-999.0,98,-99.99,,,0.00,0.000000,,2013-02-02 12:32:00,
2013-02-02 07:42:00,22.0,22.0,30.33,WSW,249,2.0,-999.0,98,-99.99,,,0.00,0.000000,,2013-02-02 12:42:00,
2013-02-02 07:53:00,22.0,22.0,30.33,WSW,245,2.0,-999.0,98,-99.99,,,0.00,0.000000,,2013-02-02 12:53:00,
2013-02-02 08:03:00,22.0,22.0,30.33,WSW,245,2.0,-999.0,98,-99.99,,,0.00,0.000000,,2013-02-02 13:03:00,
2013-02-02 08:11:00,22.0,22.0,30.33,SW,216,2.0,-999.0,98,-99.99,,,0.00,0.000000,,2013-02-02 13:11:00,
2013-02-02 08:22:00,22.0,22.0,30.32,WSW,252,2.0,-999.0,99,-99.99,,,0.00,0.000000,,2013-02-02 13:22:00,
2013-02-02 08:33:00,22.0,22.0,30.32,SW,218,1.0,-999.0,98,-99.99,,,0.00,6.980000,,2013-02-02 13:33:00,
2013-02-02 08:42:00,22.0,22.0,30.32,SW,218,1.0,-999.0,98,-99.99,,,0.00,6.980000,,2013-02-02 13:42:00,
2013-02-02 08:52:00,23.0,22.0,30.33,SW,233,2.0,-999.0,98,-99.99,,,0.00,41.869999,,2013-02-02 13:52:00,
2013-02-02 09:03:00,23.0,22.0,30.33,SW,233,2.0,-999.0,98,-99.99,,,0.00,41.869999,,2013-02-02 14:03:00,
2013-02-02 09:12:00,23.0,22.0,30.32,SSE,160,0.0,-999.0,98,-99.99,,,0.00,48.849998,,2013-02-02 14:12:00,
2013-02-02 09:22:00,24.0,22.0,30.32,WSW,242,2.0,-999.0,93,-99.99,,,0.00,118.629997,,2013-02-02 14:22:00,
2013-02-02 09:33:00,24.0,22.0,30.32,WSW,242,2.0,-999.0,93,-99.99,,,0.00,118.629997,,2013-02-02 14:33:00,
2013-02-02 09:42:00,25.0,22.0,30.33,WSW,239,4.0,-999.0,86,-99.99,,,0.00,55.820000,,2013-02-02 14:42:00,
2013-02-02 09:52:00,25.0,21.0,30.34,WSW,247,6.0,-999.0,84,-99.99,,,0.00,69.779999,,2013-02-02 14:52:00,
2013-02-02 10:03:00,25.0,21.0,30.34,WSW,247,6.0,-999.0,84,-99.99,,,0.00,69.779999,,2013-02-02 15:03:00,
2013-02-02 10:13:00,26.0,21.0,30.33,SW,233,5.0,-999.0,81,-99.99,,,0.00,62.799999,,2013-02-02 15:13:00,
2013-02-02 10:22:00,26.0,21.0,30.34,SW,221,5.0,-999.0,81,-99.99,,,0.00,27.910000,,2013-02-02 15:22:00,
2013-02-02 10:33:00,26.0,21.0,30.34,SW,221,5.0,-999.0,81,-99.99,,,0.00,27.910000,,2013-02-02 15:33:00,
2013-02-02 10:42:00,24.0,23.0,30.34,WSW,244,5.0,-999.0,93,-99.99,,,0.00,20.930000,,2013-02-02 15:42:00,
2013-02-02 10:52:00,23.0,23.0,30.33,WSW,256,5.0,-999.0,99,-99.99,,,0.00,55.820000,,2013-02-02 15:52:00,
2013-02-02 11:03:00,23.0,23.0,30.33,WSW,256,5.0,-999.0,99,-99.99,,,0.00,55.820000,,2013-02-02 16:03:00,
2013-02-02 11:12:00,24.0,24.0,30.32,SW,234,3.0,-999.0,99,-99.99,,,-99.99,83.739998,,2013-02-02 16:12:00,
2013-02-02 11:23:00,25.0,25.0,30.32,SW,231,4.0,-999.0,99,-99.99,,,0.00,125.599998,,2013-02-02 16:23:00,
2013-02-02 11:32:00,25.0,25.0,30.32,SW,231,4.0,-999.0,99,-99.99,,,0.00,125.599998,,2013-02-02 16:32:00,
2013-02-02 11:42:00,25.0,25.0,30.33,SW,228,5.0,-999.0,99,-99.99,,,0.00,97.690002,,2013-02-02 16:42:00,
2013-02-02 11:52:00,25.0,25.0,30.32,SSW,213,4.0,-999.0,99,-99.99,,,0.00,69.779999,,2013-02-02 16:52:00,
2013-02-02 12:03:00,25.0,25.0,30.32,SSW,213,4.0,-999.0,99,-99.99,,,0.00,69.779999,,2013-02-02 17:03:00,
2013-02-02 12:11:00,26.0,26.0,30.31,SSW,213,5.0,-999.0,99,-99.99,,,0.00,69.779999,,2013-02-02 17:11:00,
2013-02-02 12:23:00,26.0,26.0,30.30,SW,227,6.0,-999.0,99,-99.99,,,0.00,69.779999,,2013-02-02 17:23:00,
2013-02-02 12:33:00,26.0,26.0,30.30,SW,227,6.0,-999.0,99,-99.99,,,0.00,69.779999,,2013-02-02 17:33:00,
2013-02-02 12:42:00,26.0,26.0,30.29,SW,220,5.0,-999.0,99,-99.99,,,0.00,48.849998,,2013-02-02 17:42:00,
2013-02-02 12:53:00,26.0,26.0,30.27,SW,231,4.0,-999.0,99,-99.99,,,0.00,62.799999,,2013-02-02 17:53:00,
2013-02-02 13:03:00,26.0,26.0,30.27,SW,231,4.0,-999.0,99,-99.99,,,0.00,62.799999,,2013-02-02 18:03:00,
2013-02-02 13:12:00,26.0,26.0,30.26,WSW,239,4.0,-999.0,99,-99.99,,,0.00,41.869999,,2013-02-02 18:12:00,
2013-02-02 13:22:00,26.0,26.0,30.25,WSW,241,6.0,-999.0,99,-99.99,,,0.00,69.779999,,2013-02-02 18:22:00,
2013-02-02 13:32:00,26.0,26.0,30.25,WSW,241,6.0,-999.0,99,-99.99,,,0.00,69.779999,,2013-02-02 18:32:00,
2013-02-02 13:42:00,27.0,26.0,30.23,SW,231,6.0,-999.0,99,-99.99,,,0.00,111.650002,,2013-02-02 18:42:00,
2013-02-02 13:52:00,27.0,27.0,30.21,WSW,237,6.0,-999.0,99,-99.99,,,0.00,160.490005,,2013-02-02 18:52:00,
2013-02-02 14:02:00,27.0,27.0,30.21,WSW,237,6.0,-999.0,99,-99.99,,,0.00,160.490005,,2013-02-02 19:02:00,
2013-02-02 14:12:00,27.0,27.0,30.20,WSW,244,7.0,-999.0,99,-99.99,,,0.00,188.410004,,2013-02-02 19:12:00,
2013-02-02 14:22:00,28.0,28.0,30.19,SW,236,7.0,-999.0,99,-99.99,,,0.00,202.360001,,2013-02-02 19:22:00,
2013-02-02 14:32:00,28.0,28.0,30.19,SW,236,7.0,-999.0,99,-99.99,,,0.00,202.360001,,2013-02-02 19:32:00,
2013-02-02 14:42:00,28.0,28.0,30.17,WSW,242,8.0,-999.0,99,-99.99,,,0.00,216.320007,,2013-02-02 19:42:00,
2013-02-02 14:52:00,29.0,29.0,30.17,WSW,257,7.0,-999.0,99,-99.99,,,0.00,223.300003,,2013-02-02 19:52:00,
2013-02-02 15:02:00,29.0,29.0,30.17,WSW,257,7.0,-999.0,99,-99.99,,,0.00,223.300003,,2013-02-02 20:02:00,
2013-02-02 15:12:00,29.0,29.0,30.16,WSW,250,6.0,-999.0,99,-99.99,,,0.00,195.380005,,2013-02-02 20:12:00,
2013-02-02 15:22:00,30.0,30.0,30.15,WSW,238,7.0,-999.0,99,-99.99,,,0.00,202.360001,,2013-02-02 20:22:00,
2013-02-02 15:32:00,30.0,30.0,30.15,WSW,238,7.0,-999.0,99,-99.99,,,0.00,202.360001,,2013-02-02 20:32:00,
2013-02-02 15:42:00,30.0,30.0,30.15,SW,235,7.0,-999.0,98,-99.99,,,0.00,188.410004,,2013-02-02 20:42:00,
2013-02-02 15:52:00,31.0,30.0,30.14,WSW,242,6.0,-999.0,98,-99.99,,,0.00,286.100006,,2013-02-02 20:52:00,
2013-02-02 16:02:00,31.0,30.0,30.14,WSW,242,6.0,-999.0,98,-99.99,,,0.00,286.100006,,2013-02-02 21:02:00,
2013-02-02 16:11:00,31.0,30.0,30.13,WSW,243,7.0,-999.0,98,-99.99,,,0.00,167.470001,,2013-02-02 21:11:00,
2013-02-02 16:22:00,31.0,31.0,30.13,WSW,243,5.0,-999.0,98,-99.99,,,0.00,279.119995,,2013-02-02 21:22:00,
2013-02-02 16:32:00,32.0,31.0,30.13,SW,234,3.0,-999.0,97,-99.99,,,0.00,188.410004,,2013-02-02 21:32:00,
2013-02-02 16:42:00,32.0,31.0,30.13,SW,234,3.0,-999.0,97,-99.99,,,0.00,188.410004,,2013-02-02 21:42:00,
2013-02-02 16:52:00,32.0,32.0,30.13,WSW,245,5.0,-999.0,98,-99.99,,,0.00,181.429993,,2013-02-02 21:52:00,
2013-02-02 17:03:00,32.0,32.0,30.13,WSW,245,5.0,-999.0,98,-99.99,,,0.00,181.429993,,2013-02-02 22:03:00,
2013-02-02 17:12:00,32.0,32.0,30.12,WSW,248,5.0,-999.0,99,-99.99,,,0.00,125.599998,,2013-02-02 22:12:00,
2013-02-02 17:21:00,32.0,32.0,30.12,West,260,4.0,-999.0,99,-99.99,,,0.00,83.739998,,2013-02-02 22:21:00,
2013-02-02 17:32:00,32.0,32.0,30.12,West,260,4.0,-999.0,99,-99.99,,,0.00,83.739998,,2013-02-02 22:32:00,
2013-02-02 17:42:00,32.0,32.0,30.11,WSW,252,4.0,-999.0,99,-99.99,,,0.00,90.709999,,2013-02-02 22:42:00,
2013-02-02 17:52:00,32.0,32.0,30.12,WSW,245,4.0,-999.0,99,-99.99,,,0.00,20.930000,,2013-02-02 22:52:00,
2013-02-02 18:02:00,32.0,32.0,30.12,WSW,245,4.0,-999.0,99,-99.99,,,0.00,20.930000,,2013-02-02 23:02:00,
2013-02-02 18:11:00,32.0,32.0,30.12,West,274,3.0,-999.0,99,-99.99,,,0.00,6.980000,,2013-02-02 23:11:00,
2013-02-02 18:22:00,31.0,31.0,30.11,WNW,282,3.0,-999.0,99,-99.99,,,0.00,0.000000,,2013-02-02 23:22:00,
2013-02-02 18:32:00,31.0,31.0,30.11,WNW,282,3.0,-999.0,99,-99.99,,,0.00,0.000000,,2013-02-02 23:32:00,
2013-02-02 18:42:00,31.0,31.0,30.11,West,281,3.0,-999.0,100,-99.99,,,0.00,0.000000,,2013-02-02 23:42:00,
2013-02-02 18:52:00,31.0,31.0,30.10,North,353,1.0,-999.0,100,-99.99,,,0.00,0.000000,,2013-02-02 23:52:00,
2013-02-02 19:02:00,31.0,31.0,30.10,North,353,1.0,-999.0,100,-99.99,,,0.00,0.000000,,2013-02-03 00:02:00,
2013-02-02 19:11:00,31.0,31.0,30.10,NNW,346,1.0,-999.0,100,-99.99,,,-99.99,0.000000,,2013-02-03 00:11:00,
2013-02-02 19:22:00,31.0,31.0,30.11,West,265,3.0,-999.0,100,-99.99,,,0.00,0.000000,,2013-02-03 00:22:00,
2013-02-02 19:32:00,31.0,31.0,30.11,West,265,3.0,-999.0,100,-99.99,,,0.00,0.000000,,2013-02-03 00:32:00,
2013-02-02 19:42:00,31.0,31.0,30.11,WSW,243,1.0,-999.0,100,-99.99,,,0.00,0.000000,,2013-02-03 00:42:00,
2013-02-02 19:52:00,31.0,31.0,30.12,WSW,248,3.0,-999.0,100,-99.99,,,0.00,0.000000,,2013-02-03 00:52:00,
2013-02-02 20:02:00,31.0,31.0,30.12,WSW,248,3.0,-999.0,100,-99.99,,,0.00,0.000000,,2013-02-03 01:02:00,
2013-02-02 20:11:00,32.0,32.0,30.12,WSW,254,2.0,-999.0,100,-99.99,,,0.00,0.000000,,2013-02-03 01:11:00,
2013-02-02 20:21:00,32.0,32.0,30.12,SW,218,1.0,-999.0,100,-99.99,,,0.00,0.000000,,2013-02-03 01:21:00,
2013-02-02 20:32:00,32.0,32.0,30.12,SW,218,1.0,-999.0,100,-99.99,,,0.00,0.000000,,2013-02-03 01:32:00,
2013-02-02 20:42:00,32.0,32.0,30.12,WSW,244,1.0,-999.0,100,-99.99,,,0.00,0.000000,,2013-02-03 01:42:00,
2013-02-02 20:52:00,32.0,32.0,30.13,West,265,2.0,-999.0,100,-99.99,,,0.00,0.000000,,2013-02-03 01:52:00,
2013-02-02 21:01:00,32.0,32.0,30.13,West,265,2.0,-999.0,100,-99.99,,,0.00,0.000000,,2013-02-03 02:01:00,
2013-02-02 21:11:00,32.0,32.0,30.13,WNW,301,1.0,-999.0,100,-99.99,,,0.00,0.000000,,2013-02-03 02:11:00,
2013-02-02 21:21:00,32.0,32.0,30.13,South,183,1.0,-999.0,100,-99.99,,,0.00,0.000000,,2013-02-03 02:21:00,
2013-02-02 21:32:00,32.0,32.0,30.13,South,183,1.0,-999.0,100,-99.99,,,0.00,0.000000,,2013-02-03 02:32:00,
2013-02-02 21:42:00,32.0,32.0,30.13,WSW,258,2.0,-999.0,100,-99.99,,,0.00,0.000000,,2013-02-03 02:42:00,
2013-02-02 21:52:00,32.0,32.0,30.13,WSW,239,2.0,-999.0,100,-99.99,,,0.00,0.000000,,2013-02-03 02:52:00,
2013-02-02 22:02:00,32.0,32.0,30.13,WSW,239,2.0,-999.0,100,-99.99,,,0.00,0.000000,,2013-02-03 03:02:00,
2013-02-02 22:11:00,32.0,32.0,30.13,West,268,3.0,-999.0,100,-99.99,,,0.00,0.000000,,2013-02-03 03:11:00,
2013-02-02 22:22:00,32.0,32.0,30.13,WSW,257,1.0,-999.0,100,-99.99,,,0.00,0.000000,,2013-02-03 03:22:00,
2013-02-02 22:32:00,32.0,32.0,30.13,WSW,257,1.0,-999.0,100,-99.99,,,0.00,0.000000,,2013-02-03 03:32:00,
2013-02-02 22:42:00,32.0,32.0,30.13,SW,236,2.0,-999.0,100,-99.99,,,0.00,0.000000,,2013-02-03 03:42:00,
2013-02-02 22:52:00,32.0,32.0,30.13,WNW,282,1.0,-999.0,100,-99.99,,,0.00,0.000000,,2013-02-03 03:52:00,
2013-02-02 23:01:00,32.0,32.0,30.13,WNW,282,1.0,-999.0,100,-99.99,,,0.00,0.000000,,2013-02-03 04:01:00,
2013-02-02 23:11:00,32.0,32.0,30.12,WNW,284,3.0,-999.0,100,-99.99,,,0.00,0.000000,,2013-02-03 04:11:00,
2013-02-02 23:22:00,32.0,32.0,30.12,West,262,2.0,-999.0,100,-99.99,,,0.00,0.000000,,2013-02-03 04:22:00,
2013-02-02 23:32:00,32.0,32.0,30.12,West,262,2.0,-999.0,100,-99.99,,,0.00,0.000000,,2013-02-03 04:32:00,
2013-02-02 23:42:00,33.0,33.0,30.12,West,267,3.0,-999.0,100,-99.99,,,0.00,0.000000,,2013-02-03 04:42:00,
2013-02-02 23:52:00,33.0,33.0,30.12,West,259,3.0,-999.0,100,-99.99,,,0.00,0.000000,,2013-02-03 04:52:00,